Location: Gandikunta
(16.3784°N, 80.8378°E)
Time: 00:18:51
(UTC+00:00)

GPS 2-17 Rocket1 - Pass Details

Date: 19 May 2025
Orbit: 549 x 622 km, 20.3° (Epoch: 18 June)

Event Time Altitude Azimuth Distance (km) Brightness Sun altitude
Rises 14:30:59 0° 244° (WSW) 2,787 6.9 -20.3°
Reaches altitude 10° 14:33:22 10° 239° (WSW) 1,875 5.9 -20.8°
Enters shadow 14:37:13 50° 184° (S) 723 3.2 -21.6°
